Regional Weather Roundup
Issued by NWS

Home | Current Version | Previous Version | Text Only | Print | Product List | Glossary Off
Versions: 1 2 3 4 5 6 7 8 9 10 11 12 13 14 15 16 17 18 19 20 21 22 23 24 25 26 27 28 29 30 31 32 33 34 35 36 37 38 39 40 41 42 43 44 45 46 47 48 49 50

000
ASUS43 KIND 012209
RWRIN

WEATHER ROUNDUP FOR INDIANA
NATIONAL WEATHER SERVICE INDIANAPOLIS IN
600 PM EDT FRI AUG 01 2014

NOTE: "FAIR" INDICATES FEW OR NO CLOUDS BELOW 12,000 FEET WITH NO
SIGNIFICANT WEATHER AND/OR OBSTRUCTIONS TO VISIBILITY.

* - STATION DOES NOT REPORT WEATHER SUCH AS PRECIPITATION OR FOG.

+ - STATION NOT QUALITY CONTROLLED BY THE NATIONAL WEATHER SERVICE.
    USE DATA WITH CAUTION...ESPECIALLY DEWPOINT AND RELATIVE
    HUMIDITY OBSERVATIONS.

INZ001>003-010>013-019-020-012300-
NORTHWEST INDIANA

CITY           SKY/WX    TMP DP  RH WIND       PRES   REMARKS
GARY /AIRPORT/ PTSUNNY   77  57  50 SE9       30.07F
KNOX *+        PTSUNNY   71  60  70 CALM      30.08S
LA PORTE +     PTSUNNY   66  60  79 SE7       30.08F
MICHIGAN CITY+ PTSUNNY   73  54  49 SW6       30.07F
MONTICELLO +   CLOUDY    71  59  66 W5        30.08S
RENSSELAER +   PTSUNNY   72  59  64 CALM      30.09S
VALPARAISO     PTSUNNY   65  62  90 E3        30.07F

$$

LMZ046-743>745-012300-
SOUTHERN LAKE MICHIGAN

STATION/POSITION TIME  TEMP WIND        PRES
                       AIR  DIR/SP/G
                 (UTC) (F)  (DEG/KT/KT) (MB)
BURNS HARBOR     2100   72  150/  9/ 19   N/A
MICHIGAN CITY    2200   74  140/  8/ 11   N/A

$$

INZ004-005-014>016-021>024-012300-
NORTH CENTRAL INDIANA

CITY           SKY/WX    TMP DP  RH WIND       PRES   REMARKS
ELKHART        SUNNY     72  59  64 CALM      30.08F
GOSHEN         PTSUNNY   74  60  61 CALM      30.07F
LOGANSPORT +   CLOUDY    72  55  56 N6        30.09F
PERU/GRISSOM   CLOUDY    75  62  63 N14       30.08S
ROCHESTER +    PTSUNNY   77  57  50 E6        30.09F
SOUTH BEND     CLOUDY    71  59  65 W9        30.08F
WARSAW +       PTSUNNY   73  61  64 NW3       30.09F

$$

INZ006>009-017-018-025>027-012300-
NORTHEAST INDIANA

CITY           SKY/WX    TMP DP  RH WIND       PRES   REMARKS
ANGOLA *+      SUNNY     77  61  57 SW3       30.09S
AUBURN +       PTSUNNY   77  52  41 W8        30.10R
FORT WAYNE     MOSUNNY   78  58  49 N14       30.08F
HUNTINGTON +   MOSUNNY   73  58  57 N5        30.07F

$$

INZ028-029-035-036-043>045-051>053-012300-
WEST CENTRAL INDIANA

CITY           SKY/WX    TMP DP  RH WIND       PRES   REMARKS
GREENCASTLE +  CLOUDY    77  63  61 N5        30.08S
LAFAYETTE      CLOUDY    68  62  81 N5        30.07F
TERRE HAUTE    PTSUNNY   80  62  54 CALM      30.06F

$$

INZ030>032-037>040-046>048-054>057-064-065-012300-
CENTRAL INDIANA

CITY           SKY/WX    TMP DP  RH WIND       PRES   REMARKS
CP ATTERBURY + MOSUNNY   81  59  47 SW3       30.07S
COLUMBUS       SUNNY     81  61  50 CALM      30.05F
INDIANAPOLIS   CLOUDY    72  60  66 NW10      30.07R THUNDER
-EAGLE CREEK   LGT RAIN  70  61  73 NW12      30.08S
KOKOMO *+      PTSUNNY   79  63  57 W3        30.08S
MARION +       MOSUNNY   77  61  56 CALM      30.08F
MT COMFORT *+  PTSUNNY   77  66  69 NW3       30.08S
SHELBYVILLE    PTSUNNY   82  61  48 CALM      30.06F
ZIONSVILLE +   RAIN      69  60  72 NW12      30.11R

$$

INZ033-034-041-042-049-050-058-059-012300-
EAST CENTRAL INDIANA

CITY           SKY/WX    TMP DP  RH WIND       PRES   REMARKS
MUNCIE         LGT RAIN  72  59  63 E13       30.08S

$$

INZ060-061-067>069-081>083-085>088-012300-
SOUTHWEST INDIANA

CITY           SKY/WX    TMP DP  RH WIND       PRES   REMARKS
EVANSVILLE     SUNNY     85  57  38 SE5       30.03F
WASHINGTON +   SUNNY     83  62  48 CALM      30.03F

$$

INZ062-063-066-070>080-084-089>092-012300-
SOUTH CENTRAL AND SOUTHEAST INDIANA

CITY           SKY/WX    TMP DP  RH WIND       PRES   REMARKS
BLOOMINGTON    MOSUNNY   80  62  54 S3        30.06S

$$



USA.gov is the U.S. government's official web portal to all federal, state and local government web resources and services.